Time,TemperatureF,DewpointF,PressureIn,WindDirection,WindDirectionDegrees,WindSpeedMPH,WindSpeedGustMPH,Humidity,HourlyPrecipIn,Conditions,Clouds,dailyrainin,SolarRadiationWatts/m^2,SoftwareType,DateUTC
2013-11-16 00:00:00,33.7,29.7,29.26,SE,144,0.0,0.0,85,0.00,,,0.03,0,Wunderground v.1.15,2013-11-16 08:00:00,
2013-11-16 00:05:00,33.7,30.0,29.25,SE,144,0.0,0.0,86,0.00,,,0.00,0,Wunderground v.1.15,2013-11-16 08:05:00,
2013-11-16 00:15:00,33.7,29.7,29.25,SE,144,0.0,0.0,85,0.00,,,0.00,0,Wunderground v.1.15,2013-11-16 08:15:00,
2013-11-16 00:25:00,33.4,29.4,29.25,SE,144,0.0,0.0,85,0.00,,,0.00,0,Wunderground v.1.15,2013-11-16 08:25:00,
2013-11-16 00:35:00,33.2,29.5,29.25,SE,144,0.0,0.0,86,0.00,,,0.00,0,Wunderground v.1.15,2013-11-16 08:35:00,
2013-11-16 00:40:00,33.1,29.4,29.25,SE,144,0.0,0.0,86,0.00,,,0.00,0,Wunderground v.1.15,2013-11-16 08:40:00,
2013-11-16 00:50:00,32.9,29.5,29.25,SE,144,0.0,0.0,87,0.00,,,0.00,0,Wunderground v.1.15,2013-11-16 08:50:00,
2013-11-16 01:00:00,33.1,29.7,29.25,SE,144,0.0,0.0,87,0.00,,,0.00,0,Wunderground v.1.15,2013-11-16 09:00:00,
2013-11-16 01:10:00,33.1,29.7,29.25,SE,144,0.0,0.0,87,0.00,,,0.00,0,Wunderground v.1.15,2013-11-16 09:10:00,
2013-11-16 01:15:00,33.2,29.8,29.25,SE,144,0.0,0.0,87,0.00,,,0.00,0,Wunderground v.1.15,2013-11-16 09:15:00,
2013-11-16 01:25:00,33.1,29.7,29.25,SE,144,0.0,0.0,87,0.00,,,0.00,0,Wunderground v.1.15,2013-11-16 09:25:00,
2013-11-16 01:35:00,32.9,29.5,29.25,SE,144,0.0,0.0,87,0.00,,,0.00,0,Wunderground v.1.15,2013-11-16 09:35:00,
2013-11-16 01:40:00,32.8,29.4,29.25,SE,144,0.0,0.0,87,0.00,,,0.00,0,Wunderground v.1.15,2013-11-16 09:40:00,
2013-11-16 01:50:00,32.8,29.6,29.25,SE,144,0.0,0.0,88,0.00,,,0.00,0,Wunderground v.1.15,2013-11-16 09:50:00,
2013-11-16 02:00:00,32.7,29.5,29.25,SE,144,0.0,0.0,88,0.00,,,0.00,0,Wunderground v.1.15,2013-11-16 10:00:00,
2013-11-16 02:05:00,32.7,29.5,29.26,SE,144,0.0,0.0,88,0.00,,,0.00,0,Wunderground v.1.15,2013-11-16 10:05:00,
2013-11-16 02:10:00,32.7,29.5,29.26,SE,144,0.0,0.0,88,0.00,,,0.00,0,Wunderground v.1.15,2013-11-16 10:10:00,
2013-11-16 02:20:00,32.4,29.0,29.26,SE,144,0.0,0.0,87,0.00,,,0.00,0,Wunderground v.1.15,2013-11-16 10:20:00,
2013-11-16 02:30:00,32.2,29.0,29.26,SE,144,0.0,0.0,88,0.00,,,0.00,0,Wunderground v.1.15,2013-11-16 10:30:00,
2013-11-16 02:40:00,32.1,28.7,29.25,SE,144,0.0,0.0,87,0.00,,,0.00,0,Wunderground v.1.15,2013-11-16 10:40:00,
2013-11-16 02:45:00,31.9,28.5,29.26,SE,144,0.0,0.0,87,0.00,,,0.00,0,Wunderground v.1.15,2013-11-16 10:45:00,
2013-11-16 02:50:00,31.9,28.2,29.26,SE,144,0.0,0.0,86,0.00,,,0.00,0,Wunderground v.1.15,2013-11-16 10:50:00,
2013-11-16 03:00:00,31.3,27.6,29.26,SE,144,0.0,0.0,86,0.00,,,0.00,0,Wunderground v.1.15,2013-11-16 11:00:00,
2013-11-16 03:15:00,31.0,27.6,29.27,SE,144,0.0,0.0,87,0.00,,,0.00,0,Wunderground v.1.15,2013-11-16 11:15:00,
2013-11-16 03:20:00,30.9,27.5,29.27,SE,144,0.0,0.0,87,0.00,,,0.00,0,Wunderground v.1.15,2013-11-16 11:20:00,
2013-11-16 03:25:00,30.6,27.2,29.27,SE,144,0.0,0.0,87,0.00,,,0.00,0,Wunderground v.1.15,2013-11-16 11:25:00,
2013-11-16 03:35:00,30.3,26.6,29.28,SE,144,0.0,0.0,86,0.00,,,0.00,0,Wunderground v.1.15,2013-11-16 11:35:00,
2013-11-16 03:45:00,30.0,26.3,29.28,SE,144,0.0,0.0,86,0.00,,,0.00,0,Wunderground v.1.15,2013-11-16 11:45:00,
2013-11-16 03:55:00,29.8,26.4,29.28,SE,144,0.0,0.0,87,0.00,,,0.00,0,Wunderground v.1.15,2013-11-16 11:55:00,
2013-11-16 04:05:00,30.0,26.6,29.30,SE,144,0.0,0.0,87,0.00,,,0.00,0,Wunderground v.1.15,2013-11-16 12:05:00,
2013-11-16 04:15:00,29.8,26.4,29.30,SE,144,0.0,0.0,87,0.00,,,0.00,0,Wunderground v.1.15,2013-11-16 12:15:00,
2013-11-16 04:25:00,30.1,27.0,29.30,SE,144,0.0,0.0,88,0.00,,,0.00,0,Wunderground v.1.15,2013-11-16 12:25:00,
2013-11-16 04:35:00,30.4,27.3,29.31,SE,144,0.0,0.0,88,0.00,,,0.00,0,Wunderground v.1.15,2013-11-16 12:35:00,
2013-11-16 04:45:00,30.7,27.6,29.31,SSE,163,0.0,0.0,88,0.00,,,0.00,0,Wunderground v.1.15,2013-11-16 12:45:00,
2013-11-16 04:55:00,31.2,28.1,29.32,WSW,246,0.0,2.0,88,0.00,,,0.00,0,Wunderground v.1.15,2013-11-16 12:55:00,
2013-11-16 05:05:00,31.5,28.1,29.33,West,265,1.0,1.0,87,0.00,,,0.00,0,Wunderground v.1.15,2013-11-16 13:05:00,
2013-11-16 05:15:00,31.9,28.2,29.33,West,259,2.0,3.0,86,0.00,,,0.00,0,Wunderground v.1.15,2013-11-16 13:15:00,
2013-11-16 05:25:00,32.4,28.7,29.33,NW,321,1.0,3.0,86,0.00,,,0.00,0,Wunderground v.1.15,2013-11-16 13:25:00,
2013-11-16 05:35:00,32.7,28.7,29.33,WNW,289,1.0,3.0,85,0.00,,,0.00,0,Wunderground v.1.15,2013-11-16 13:35:00,
2013-11-16 05:45:00,32.9,28.3,29.34,West,281,1.0,1.0,83,0.00,,,0.00,0,Wunderground v.1.15,2013-11-16 13:45:00,
2013-11-16 05:50:00,32.7,28.4,29.34,West,281,0.0,1.0,84,0.00,,,0.00,0,Wunderground v.1.15,2013-11-16 13:50:00,
2013-11-16 05:55:00,32.4,28.1,29.34,WSW,245,1.0,1.0,84,0.00,,,0.00,0,Wunderground v.1.15,2013-11-16 13:55:00,
2013-11-16 06:10:00,31.8,27.5,29.35,NNW,338,0.0,2.0,84,0.00,,,0.00,0,Wunderground v.1.15,2013-11-16 14:10:00,
2013-11-16 06:15:00,31.5,27.5,29.35,WNW,299,1.0,2.0,85,0.00,,,0.00,0,Wunderground v.1.15,2013-11-16 14:15:00,
2013-11-16 06:25:00,31.0,27.3,29.36,WNW,301,1.0,1.0,86,0.00,,,0.00,0,Wunderground v.1.15,2013-11-16 14:25:00,
2013-11-16 06:35:00,31.9,27.3,29.36,West,260,1.0,2.0,83,0.00,,,0.00,0,Wunderground v.1.15,2013-11-16 14:35:00,
2013-11-16 06:45:00,33.4,27.3,29.36,WNW,292,2.0,3.0,78,0.00,,,0.00,0,Wunderground v.1.15,2013-11-16 14:45:00,
2013-11-16 06:55:00,34.0,27.2,29.36,SW,230,1.0,6.0,76,0.00,,,0.00,0,Wunderground v.1.15,2013-11-16 14:55:00,
2013-11-16 07:05:00,34.1,27.3,29.38,WNW,294,2.0,2.0,76,0.00,,,0.00,0,Wunderground v.1.15,2013-11-16 15:05:00,
2013-11-16 07:15:00,33.7,27.3,29.38,West,269,1.0,1.0,77,0.00,,,0.00,0,Wunderground v.1.15,2013-11-16 15:15:00,
2013-11-16 07:25:00,33.7,27.6,29.39,West,277,1.0,2.0,78,0.00,,,0.00,5,Wunderground v.1.15,2013-11-16 15:25:00,
2013-11-16 07:35:00,33.4,27.6,29.40,WSW,257,1.0,3.0,79,0.00,,,0.00,16,Wunderground v.1.15,2013-11-16 15:35:00,
2013-11-16 07:45:00,34.1,27.6,29.41,North,360,1.0,1.0,77,0.00,,,0.00,62,Wunderground v.1.15,2013-11-16 15:45:00,
2013-11-16 07:55:00,35.3,28.5,29.42,North,355,0.0,1.0,76,0.00,,,0.00,65,Wunderground v.1.15,2013-11-16 15:55:00,
2013-11-16 08:00:00,35.6,28.8,29.41,West,269,1.0,1.0,76,0.00,,,0.00,58,Wunderground v.1.15,2013-11-16 16:00:00,
2013-11-16 08:05:00,35.9,29.1,29.41,NNW,332,1.0,1.0,76,0.00,,,0.00,83,Wunderground v.1.15,2013-11-16 16:05:00,
2013-11-16 08:15:00,36.8,29.3,29.41,NNE,19,1.0,1.0,74,0.00,,,0.00,114,Wunderground v.1.15,2013-11-16 16:15:00,
2013-11-16 08:25:00,37.8,29.2,29.40,North,355,1.0,2.0,71,0.00,,,0.00,86,Wunderground v.1.15,2013-11-16 16:25:00,
2013-11-16 08:35:00,38.8,29.5,29.41,West,267,1.0,4.0,69,0.00,,,0.00,188,Wunderground v.1.15,2013-11-16 16:35:00,
2013-11-16 08:40:00,39.3,28.9,29.41,West,279,2.0,2.0,66,0.00,,,0.00,192,Wunderground v.1.15,2013-11-16 16:40:00,
2013-11-16 08:45:00,39.9,29.8,29.41,West,281,1.0,2.0,67,0.00,,,0.00,195,Wunderground v.1.15,2013-11-16 16:45:00,
2013-11-16 08:55:00,40.5,29.3,29.41,NNW,340,1.0,2.0,64,0.00,,,0.00,213,Wunderground v.1.15,2013-11-16 16:55:00,
2013-11-16 09:00:00,40.9,29.3,29.41,WSW,241,1.0,1.0,63,0.00,,,0.00,243,Wunderground v.1.15,2013-11-16 17:00:00,
2013-11-16 09:10:00,41.6,29.9,29.41,NNW,348,1.0,1.0,63,0.00,,,0.00,255,Wunderground v.1.15,2013-11-16 17:10:00,
2013-11-16 09:20:00,42.3,32.1,29.41,West,269,1.0,3.0,67,0.00,,,0.00,311,Wunderground v.1.15,2013-11-16 17:20:00,
2013-11-16 09:30:00,43.5,31.3,29.41,SSE,158,1.0,1.0,62,0.00,,,0.00,322,Wunderground v.1.15,2013-11-16 17:30:00,
2013-11-16 09:40:00,44.3,30.9,29.41,NNW,342,1.0,1.0,59,0.00,,,0.00,120,Wunderground v.1.15,2013-11-16 17:40:00,
2013-11-16 09:50:00,44.1,29.4,29.41,NW,307,1.0,1.0,56,0.00,,,0.00,251,Wunderground v.1.15,2013-11-16 17:50:00,
2013-11-16 10:00:00,43.3,29.5,29.43,SSW,200,1.0,5.0,58,0.00,,,0.00,316,Wunderground v.1.15,2013-11-16 18:00:00,
2013-11-16 10:10:00,43.5,29.7,29.43,NE,49,1.0,1.0,58,0.00,,,0.00,262,Wunderground v.1.15,2013-11-16 18:10:00,
2013-11-16 10:20:00,43.1,27.1,29.44,West,281,1.0,1.0,53,0.00,,,0.00,134,Wunderground v.1.15,2013-11-16 18:20:00,
2013-11-16 10:30:00,42.8,28.2,29.45,West,280,1.0,1.0,56,0.00,,,0.00,155,Wunderground v.1.15,2013-11-16 18:30:00,
2013-11-16 10:35:00,43.2,28.1,29.45,East,90,1.0,1.0,55,0.00,,,0.00,142,Wunderground v.1.15,2013-11-16 18:35:00,
2013-11-16 10:45:00,44.1,27.6,29.45,WNW,300,0.0,2.0,52,0.00,,,0.00,471,Wunderground v.1.15,2013-11-16 18:45:00,
2013-11-16 10:55:00,46.0,25.8,29.44,ENE,63,1.0,1.0,45,0.00,,,0.00,448,Wunderground v.1.15,2013-11-16 18:55:00,
2013-11-16 11:10:00,46.2,27.6,29.44,West,276,1.0,3.0,48,0.00,,,0.00,346,Wunderground v.1.15,2013-11-16 19:10:00,
2013-11-16 11:20:00,46.1,27.5,29.44,West,261,1.0,1.0,48,0.00,,,0.00,429,Wunderground v.1.15,2013-11-16 19:20:00,
2013-11-16 11:30:00,46.1,26.4,29.44,NNW,331,1.0,2.0,46,0.00,,,0.00,294,Wunderground v.1.15,2013-11-16 19:30:00,
2013-11-16 11:40:00,45.7,25.0,29.44,WSW,253,2.0,2.0,44,0.00,,,0.00,373,Wunderground v.1.15,2013-11-16 19:40:00,
2013-11-16 11:45:00,45.8,26.2,29.44,East,85,2.0,2.0,46,0.00,,,0.00,343,Wunderground v.1.15,2013-11-16 19:45:00,
2013-11-16 11:55:00,46.1,24.8,29.44,NW,323,2.0,3.0,43,0.00,,,0.00,373,Wunderground v.1.15,2013-11-16 19:55:00,
2013-11-16 12:05:00,47.0,24.5,29.45,WSW,244,1.0,3.0,41,0.00,,,0.00,294,Wunderground v.1.15,2013-11-16 20:05:00,
2013-11-16 12:15:00,46.7,25.4,29.45,West,270,2.0,2.0,43,0.00,,,0.00,105,Wunderground v.1.15,2013-11-16 20:15:00,
2013-11-16 12:25:00,46.4,25.6,29.45,West,264,1.0,3.0,44,0.00,,,0.00,369,Wunderground v.1.15,2013-11-16 20:25:00,
2013-11-16 12:35:00,46.5,25.2,29.45,WNW,301,1.0,6.0,43,0.00,,,0.00,373,Wunderground v.1.15,2013-11-16 20:35:00,
2013-11-16 12:40:00,46.7,24.2,29.45,WNW,302,1.0,2.0,41,0.00,,,0.00,350,Wunderground v.1.15,2013-11-16 20:40:00,
2013-11-16 12:50:00,46.7,22.4,29.46,WSW,244,2.0,2.0,38,0.00,,,0.00,283,Wunderground v.1.15,2013-11-16 20:50:00,
2013-11-16 13:00:00,46.1,23.1,29.47,NW,324,2.0,2.0,40,0.00,,,0.00,178,Wunderground v.1.15,2013-11-16 21:00:00,
2013-11-16 13:10:00,45.7,22.1,29.47,West,275,2.0,2.0,39,0.00,,,0.00,341,Wunderground v.1.15,2013-11-16 21:10:00,
2013-11-16 13:20:00,45.5,21.3,29.48,NW,310,2.0,2.0,38,0.00,,,0.00,86,Wunderground v.1.15,2013-11-16 21:20:00,
2013-11-16 13:30:00,43.6,21.4,29.48,NE,40,1.0,4.0,41,0.00,,,0.00,56,Wunderground v.1.15,2013-11-16 21:30:00,
2013-11-16 13:40:00,42.6,22.2,29.48,WNW,300,1.0,3.0,44,0.00,,,0.00,53,Wunderground v.1.15,2013-11-16 21:40:00,
2013-11-16 13:45:00,42.3,20.2,29.48,WSW,252,1.0,3.0,41,0.00,,,0.00,62,Wunderground v.1.15,2013-11-16 21:45:00,
2013-11-16 13:55:00,42.3,19.7,29.49,WSW,253,1.0,1.0,40,0.00,,,0.00,76,Wunderground v.1.15,2013-11-16 21:55:00,
2013-11-16 14:05:00,42.3,19.1,29.49,West,263,2.0,2.0,39,0.00,,,0.00,44,Wunderground v.1.15,2013-11-16 22:05:00,
2013-11-16 14:15:00,42.1,20.1,29.50,West,261,2.0,2.0,41,0.00,,,0.00,67,Wunderground v.1.15,2013-11-16 22:15:00,
2013-11-16 14:25:00,41.8,19.8,29.50,NNW,348,1.0,1.0,41,0.00,,,0.00,56,Wunderground v.1.15,2013-11-16 22:25:00,
2013-11-16 14:35:00,41.6,20.2,29.50,West,263,1.0,1.0,42,0.00,,,0.00,46,Wunderground v.1.15,2013-11-16 22:35:00,
2013-11-16 14:45:00,41.5,21.7,29.50,NW,313,1.0,1.0,45,0.00,,,0.00,44,Wunderground v.1.15,2013-11-16 22:45:00,
2013-11-16 14:55:00,41.3,21.5,29.51,WNW,291,1.0,1.0,45,0.00,,,0.00,40,Wunderground v.1.15,2013-11-16 22:55:00,
2013-11-16 15:00:00,41.2,20.9,29.51,NNW,342,2.0,2.0,44,0.00,,,0.00,30,Wunderground v.1.15,2013-11-16 23:00:00,
2013-11-16 15:05:00,41.1,21.3,29.51,NW,311,2.0,2.0,45,0.00,,,0.00,28,Wunderground v.1.15,2013-11-16 23:05:00,
2013-11-16 15:15:00,40.9,21.7,29.51,NNE,26,2.0,3.0,46,0.00,,,0.00,28,Wunderground v.1.15,2013-11-16 23:15:00,
2013-11-16 15:25:00,40.3,21.6,29.52,West,273,0.0,1.0,47,0.00,,,0.00,28,Wunderground v.1.15,2013-11-16 23:25:00,
2013-11-16 15:35:00,40.2,22.1,29.52,West,260,1.0,1.0,48,0.00,,,0.00,28,Wunderground v.1.15,2013-11-16 23:35:00,
2013-11-16 15:45:00,39.8,22.2,29.53,WNW,283,0.0,5.0,49,0.00,,,0.00,23,Wunderground v.1.15,2013-11-16 23:45:00,
2013-11-16 15:50:00,39.9,21.8,29.53,WNW,303,1.0,1.0,48,0.00,,,0.00,21,Wunderground v.1.15,2013-11-16 23:50:00,
2013-11-16 16:00:00,40.1,22.0,29.53,WNW,289,0.0,0.0,48,0.00,,,0.00,14,Wunderground v.1.15,2013-11-17 00:00:00,
2013-11-16 16:05:00,39.8,24.9,29.54,WNW,289,0.0,0.0,55,0.00,,,0.00,11,Wunderground v.1.15,2013-11-17 00:05:00,
2013-11-16 16:15:00,38.9,22.8,29.54,WNW,290,0.0,0.0,52,0.00,,,0.00,5,Wunderground v.1.15,2013-11-17 00:15:00,
2013-11-16 16:25:00,38.5,24.1,29.55,WNW,290,0.0,0.0,56,0.00,,,0.00,0,Wunderground v.1.15,2013-11-17 00:25:00,
2013-11-16 16:30:00,38.2,23.9,29.55,West,274,0.0,0.0,56,0.00,,,0.00,0,Wunderground v.1.15,2013-11-17 00:30:00,
2013-11-16 16:40:00,37.9,24.8,29.55,West,274,0.0,0.0,59,0.00,,,0.00,0,Wunderground v.1.15,2013-11-17 00:40:00,
2013-11-16 16:45:00,37.6,24.1,29.55,West,273,0.0,0.0,58,0.00,,,0.00,0,Wunderground v.1.15,2013-11-17 00:45:00,
2013-11-16 16:55:00,37.5,23.2,29.56,WNW,302,0.0,1.0,56,0.00,,,0.00,0,Wunderground v.1.15,2013-11-17 00:55:00,
2013-11-16 17:05:00,38.0,23.3,29.56,WNW,300,0.0,0.0,55,0.00,,,0.00,0,Wunderground v.1.15,2013-11-17 01:05:00,
2013-11-16 17:10:00,38.2,23.9,29.56,North,11,0.0,0.0,56,0.00,,,0.00,0,Wunderground v.1.15,2013-11-17 01:10:00,
2013-11-16 17:20:00,38.2,23.4,29.57,WNW,302,0.0,1.0,55,0.00,,,0.00,0,Wunderground v.1.15,2013-11-17 01:20:00,
2013-11-16 17:30:00,37.5,23.6,29.56,WNW,303,0.0,0.0,57,0.00,,,0.00,0,Wunderground v.1.15,2013-11-17 01:30:00,
2013-11-16 17:40:00,36.9,23.5,29.57,WNW,294,0.0,0.0,58,0.00,,,0.00,0,Wunderground v.1.15,2013-11-17 01:40:00,
2013-11-16 17:50:00,36.6,24.0,29.57,North,5,0.0,0.0,60,0.00,,,0.00,0,Wunderground v.1.15,2013-11-17 01:50:00,
2013-11-16 18:00:00,36.9,24.3,29.58,North,5,0.0,0.0,60,0.00,,,0.00,0,Wunderground v.1.15,2013-11-17 02:00:00,
2013-11-16 18:10:00,37.2,23.8,29.58,SSW,207,0.0,2.0,58,0.00,,,0.00,0,Wunderground v.1.15,2013-11-17 02:10:00,
2013-11-16 18:20:00,37.9,24.8,29.57,NE,45,1.0,2.0,59,0.00,,,0.00,0,Wunderground v.1.15,2013-11-17 02:20:00,
2013-11-16 18:30:00,38.2,24.7,29.58,NNE,33,1.0,1.0,58,0.00,,,0.00,0,Wunderground v.1.15,2013-11-17 02:30:00,
2013-11-16 18:40:00,38.3,25.2,29.58,West,263,1.0,1.0,59,0.00,,,0.00,0,Wunderground v.1.15,2013-11-17 02:40:00,
2013-11-16 18:50:00,37.9,24.8,29.58,West,263,0.0,0.0,59,0.00,,,0.00,0,Wunderground v.1.15,2013-11-17 02:50:00,
2013-11-16 18:55:00,37.6,25.4,29.58,West,263,0.0,0.0,61,0.00,,,0.00,0,Wunderground v.1.15,2013-11-17 02:55:00,
2013-11-16 19:05:00,36.9,25.1,29.58,West,274,0.0,0.0,62,0.00,,,0.00,0,Wunderground v.1.15,2013-11-17 03:05:00,
2013-11-16 19:10:00,36.6,24.8,29.58,West,274,0.0,0.0,62,0.00,,,0.00,0,Wunderground v.1.15,2013-11-17 03:10:00,
2013-11-16 19:15:00,36.2,24.4,29.58,West,274,0.0,0.0,62,0.00,,,0.00,0,Wunderground v.1.15,2013-11-17 03:15:00,
2013-11-16 19:25:00,35.8,25.2,29.59,West,274,0.0,0.0,65,0.00,,,0.00,0,Wunderground v.1.15,2013-11-17 03:25:00,
2013-11-16 19:30:00,35.3,24.7,29.59,West,274,0.0,0.0,65,0.00,,,0.00,0,Wunderground v.1.15,2013-11-17 03:30:00,
2013-11-16 19:35:00,35.2,25.0,29.59,West,274,0.0,0.0,66,0.00,,,0.00,0,Wunderground v.1.15,2013-11-17 03:35:00,
2013-11-16 19:45:00,34.7,24.9,29.60,North,355,0.0,0.0,67,0.00,,,0.00,0,Wunderground v.1.15,2013-11-17 03:45:00,
2013-11-16 19:55:00,34.3,25.2,29.60,North,355,0.0,0.0,69,0.00,,,0.00,0,Wunderground v.1.15,2013-11-17 03:55:00,
2013-11-16 20:05:00,33.5,24.8,29.60,North,355,0.0,0.0,70,0.00,,,0.00,0,Wunderground v.1.15,2013-11-17 04:05:00,
2013-11-16 20:10:00,33.2,24.5,29.60,North,355,0.0,0.0,70,0.00,,,0.00,0,Wunderground v.1.15,2013-11-17 04:10:00,
2013-11-16 20:20:00,32.8,24.1,29.60,North,355,0.0,0.0,70,0.00,,,0.00,0,Wunderground v.1.15,2013-11-17 04:20:00,
2013-11-16 20:30:00,32.5,24.5,29.61,North,355,0.0,0.0,72,0.00,,,0.00,0,Wunderground v.1.15,2013-11-17 04:30:00,
2013-11-16 20:40:00,31.8,24.5,29.62,North,355,0.0,0.0,74,0.00,,,0.00,0,Wunderground v.1.15,2013-11-17 04:40:00,
2013-11-16 20:50:00,31.0,24.0,29.62,North,355,0.0,0.0,75,0.00,,,0.00,0,Wunderground v.1.15,2013-11-17 04:50:00,
2013-11-16 21:00:00,30.6,23.9,29.62,North,355,0.0,0.0,76,0.00,,,0.00,0,Wunderground v.1.15,2013-11-17 05:00:00,
2013-11-16 21:05:00,30.3,23.6,29.63,North,355,0.0,0.0,76,0.00,,,0.00,0,Wunderground v.1.15,2013-11-17 05:05:00,
2013-11-16 21:15:00,29.7,23.7,29.63,North,355,0.0,0.0,78,0.00,,,0.00,0,Wunderground v.1.15,2013-11-17 05:15:00,
2013-11-16 21:20:00,29.5,23.5,29.63,North,355,0.0,0.0,78,0.00,,,0.00,0,Wunderground v.1.15,2013-11-17 05:20:00,
2013-11-16 21:25:00,29.4,23.4,29.64,North,355,0.0,0.0,78,0.00,,,0.00,0,Wunderground v.1.15,2013-11-17 05:25:00,
2013-11-16 21:30:00,29.4,23.4,29.64,North,355,0.0,0.0,78,0.00,,,0.00,0,Wunderground v.1.15,2013-11-17 05:30:00,
2013-11-16 21:35:00,29.3,23.6,29.64,North,355,0.0,0.0,79,0.00,,,0.00,0,Wunderground v.1.15,2013-11-17 05:35:00,
2013-11-16 21:45:00,29.4,23.4,29.64,North,355,0.0,0.0,78,0.00,,,0.00,0,Wunderground v.1.15,2013-11-17 05:45:00,
2013-11-16 21:55:00,29.3,23.3,29.65,North,355,0.0,0.0,78,0.00,,,0.00,0,Wunderground v.1.15,2013-11-17 05:55:00,
2013-11-16 22:05:00,29.1,23.4,29.64,North,355,0.0,0.0,79,0.00,,,0.00,0,Wunderground v.1.15,2013-11-17 06:05:00,
2013-11-16 22:15:00,29.1,23.4,29.64,North,355,0.0,0.0,79,0.00,,,0.00,0,Wunderground v.1.15,2013-11-17 06:15:00,
2013-11-16 22:25:00,29.1,23.4,29.64,North,355,0.0,0.0,79,0.00,,,0.00,0,Wunderground v.1.15,2013-11-17 06:25:00,
2013-11-16 22:30:00,29.1,23.4,29.65,North,355,0.0,0.0,79,0.00,,,0.00,0,Wunderground v.1.15,2013-11-17 06:30:00,
2013-11-16 22:40:00,29.0,23.3,29.65,North,355,0.0,0.0,79,0.00,,,0.00,0,Wunderground v.1.15,2013-11-17 06:40:00,
2013-11-16 22:50:00,28.7,23.0,29.65,North,355,0.0,0.0,79,0.00,,,0.00,0,Wunderground v.1.15,2013-11-17 06:50:00,
2013-11-16 22:55:00,28.8,23.1,29.65,North,355,0.0,0.0,79,0.00,,,0.00,0,Wunderground v.1.15,2013-11-17 06:55:00,
2013-11-16 23:00:00,28.8,23.4,29.65,North,355,0.0,0.0,80,0.00,,,0.00,0,Wunderground v.1.15,2013-11-17 07:00:00,
2013-11-16 23:10:00,29.1,23.4,29.66,North,355,0.0,0.0,79,0.00,,,0.00,0,Wunderground v.1.15,2013-11-17 07:10:00,
2013-11-16 23:15:00,29.1,23.7,29.66,North,355,0.0,0.0,80,0.00,,,0.00,0,Wunderground v.1.15,2013-11-17 07:15:00,
2013-11-16 23:25:00,29.3,23.6,29.66,North,355,0.0,0.0,79,0.00,,,0.00,0,Wunderground v.1.15,2013-11-17 07:25:00,
2013-11-16 23:35:00,29.4,23.7,29.67,North,355,0.0,0.0,79,0.00,,,0.00,0,Wunderground v.1.15,2013-11-17 07:35:00,
2013-11-16 23:45:00,29.7,24.0,29.67,North,355,0.0,0.0,79,0.00,,,0.00,0,Wunderground v.1.15,2013-11-17 07:45:00,
2013-11-16 23:55:00,29.8,24.1,29.68,North,355,0.0,0.0,79,0.00,,,0.00,0,Wunderground v.1.15,2013-11-17 07:55:00,